Location: Chuathbaluk
(61.5726°N, 159.2454°W)
Time: 14:11:28
(UTC+00:00)

NUDT-PHONESAT - Pass Details

Date: 21 January 2021
Orbit: 480 x 498 km, 97.4° (Epoch: 01 March)

Event Time Altitude Azimuth Distance (km) Brightness Sun altitude
Rises 16:24:51 0° 23° (NNE) 2,612 ? -20.1°
Reaches altitude 10° 16:27:26 10° 42° (NE) 1,722 ? -19.8°
Maximum altitude 16:30:07 19° 89° (E) 1,262 ? -19.4°
Drops below altitude 10° 16:32:47 10° 135° (SE) 1,710 ? -19.1°
Sets 16:35:20 0° 154° (SSE) 2,587 ? -18.8°
